Time,TemperatureF,DewpointF,PressureIn,WindDirection,WindDirectionDegrees,WindSpeedMPH,WindSpeedGustMPH,Humidity,HourlyPrecipIn,Conditions,Clouds,dailyrainin,SoftwareType,DateUTC
2013-07-11 00:01:00,56.3,49.5,30.00,NE,40,0.0,4.0,78,0.00,SCT,,0.00,WeatherDisplay:10.37,2013-07-11 07:01:00,
2013-07-11 00:11:00,56.1,49.3,30.00,ESE,115,0.0,4.0,78,0.00,SCT,,0.00,WeatherDisplay:10.37,2013-07-11 07:11:00,
2013-07-11 00:16:00,56.1,49.3,30.00,ESE,114,1.0,2.0,78,0.00,BKN,,0.00,WeatherDisplay:10.37,2013-07-11 07:16:00,
2013-07-11 00:21:00,56.1,49.3,30.00,ENE,72,1.0,2.0,78,0.00,BKN,,0.00,WeatherDisplay:10.37,2013-07-11 07:21:00,
2013-07-11 00:26:00,56.0,48.9,30.00,NE,49,2.0,3.0,77,0.00,BKN,,0.00,WeatherDisplay:10.37,2013-07-11 07:26:00,
2013-07-11 00:31:00,55.9,48.8,30.00,East,87,1.0,3.0,77,0.00,OVC,,0.00,WeatherDisplay:10.37,2013-07-11 07:31:00,
2013-07-11 00:36:00,55.9,48.8,30.00,ENE,68,2.0,4.0,77,0.00,OVC,,0.00,WeatherDisplay:10.37,2013-07-11 07:36:00,
2013-07-11 00:41:00,55.8,48.7,30.00,NE,48,0.0,2.0,77,0.00,OVC,,0.00,WeatherDisplay:10.37,2013-07-11 07:41:00,
2013-07-11 00:46:00,55.8,48.7,30.00,NE,44,0.0,3.0,77,0.00,OVC,,0.00,WeatherDisplay:10.37,2013-07-11 07:46:00,
2013-07-11 00:51:00,55.8,48.7,30.00,ENE,60,1.0,2.0,77,0.00,OVC,,0.00,WeatherDisplay:10.37,2013-07-11 07:51:00,
2013-07-11 00:56:00,55.8,48.7,30.00,ENE,71,0.0,2.0,77,0.00,OVC,,0.00,WeatherDisplay:10.37,2013-07-11 07:56:00,
2013-07-11 01:01:00,55.8,48.7,30.00,ENE,75,0.0,2.0,77,0.00,OVC,,0.00,WeatherDisplay:10.37,2013-07-11 08:01:00,
2013-07-11 01:11:00,55.7,48.6,30.00,North,1,0.0,2.0,77,0.00,OVC,,0.00,WeatherDisplay:10.37,2013-07-11 08:11:00,
2013-07-11 01:16:00,55.7,48.6,30.00,NNW,345,0.0,2.0,77,0.00,OVC,,0.00,WeatherDisplay:10.37,2013-07-11 08:16:00,
2013-07-11 01:21:00,55.7,48.6,30.01,North,2,0.0,2.0,77,0.00,OVC,,0.00,WeatherDisplay:10.37,2013-07-11 08:21:00,
2013-07-11 01:26:00,55.6,48.5,30.01,NE,39,0.0,4.0,77,0.00,OVC,,0.00,WeatherDisplay:10.37,2013-07-11 08:26:00,
2013-07-11 01:31:00,55.5,48.4,30.01,NE,39,1.0,3.0,77,0.00,OVC,,0.00,WeatherDisplay:10.37,2013-07-11 08:31:00,
2013-07-11 01:36:00,55.5,48.1,30.01,NE,38,1.0,3.0,76,0.00,OVC,,0.00,WeatherDisplay:10.37,2013-07-11 08:36:00,
2013-07-11 01:41:00,55.4,48.3,30.01,NE,41,1.0,4.0,77,0.00,OVC,,0.00,WeatherDisplay:10.37,2013-07-11 08:41:00,
2013-07-11 01:46:00,55.4,48.0,30.00,ENE,68,1.0,5.0,76,0.00,OVC,,0.00,WeatherDisplay:10.37,2013-07-11 08:46:00,
2013-07-11 01:51:00,55.3,48.2,30.01,ENE,69,1.0,2.0,77,0.00,OVC,,0.00,WeatherDisplay:10.37,2013-07-11 08:51:00,
2013-07-11 01:56:00,55.3,48.3,30.01,NNE,20,0.0,2.0,77,0.00,OVC,,0.00,WeatherDisplay:10.37,2013-07-11 08:56:00,
2013-07-11 02:01:00,55.4,48.3,30.01,NW,324,0.0,3.0,77,0.00,BKN,,0.00,WeatherDisplay:10.37,2013-07-11 09:01:00,
2013-07-11 02:11:00,55.4,48.3,30.01,NE,52,0.0,2.0,77,0.00,BKN,,0.00,WeatherDisplay:10.37,2013-07-11 09:11:00,
2013-07-11 02:16:00,55.3,48.2,30.01,NNE,19,0.0,3.0,77,0.00,OVC,,0.00,WeatherDisplay:10.37,2013-07-11 09:16:00,
2013-07-11 02:21:00,55.3,48.2,30.01,East,84,0.0,2.0,77,0.00,OVC,,0.00,WeatherDisplay:10.37,2013-07-11 09:21:00,
2013-07-11 02:26:00,55.3,48.2,30.01,East,93,1.0,3.0,77,0.00,OVC,,0.00,WeatherDisplay:10.37,2013-07-11 09:26:00,
2013-07-11 02:31:00,55.3,48.2,30.01,ENE,76,0.0,3.0,77,0.00,OVC,,0.00,WeatherDisplay:10.37,2013-07-11 09:31:00,
2013-07-11 02:36:00,55.3,48.2,30.01,ENE,65,1.0,2.0,77,0.00,OVC,,0.00,WeatherDisplay:10.37,2013-07-11 09:36:00,
2013-07-11 02:41:00,55.3,48.2,30.02,ENE,74,0.0,2.0,77,0.00,OVC,,0.00,WeatherDisplay:10.37,2013-07-11 09:41:00,
2013-07-11 02:46:00,55.3,48.2,30.01,East,90,0.0,1.0,77,0.00,OVC,,0.00,WeatherDisplay:10.37,2013-07-11 09:46:00,
2013-07-11 02:51:00,55.2,48.2,30.01,NE,44,1.0,2.0,77,0.00,OVC,,0.00,WeatherDisplay:10.37,2013-07-11 09:51:00,
2013-07-11 02:56:00,55.2,48.1,30.02,North,7,0.0,4.0,77,0.00,OVC,,0.00,WeatherDisplay:10.37,2013-07-11 09:56:00,
2013-07-11 03:01:00,55.2,48.1,30.02,NNE,22,1.0,2.0,77,0.00,OVC,,0.00,WeatherDisplay:10.37,2013-07-11 10:01:00,
2013-07-11 03:11:00,55.1,48.0,30.01,NNE,21,1.0,2.0,77,0.00,OVC,,0.00,WeatherDisplay:10.37,2013-07-11 10:11:00,
2013-07-11 03:16:00,55.1,48.4,30.01,NE,39,0.0,2.0,78,0.00,OVC,,0.00,WeatherDisplay:10.37,2013-07-11 10:16:00,
2013-07-11 03:21:00,55.0,48.3,30.02,NNE,27,1.0,5.0,78,0.00,OVC,,0.00,WeatherDisplay:10.37,2013-07-11 10:21:00,
2013-07-11 03:26:00,55.0,48.3,30.01,East,85,0.0,3.0,78,0.00,OVC,,0.00,WeatherDisplay:10.37,2013-07-11 10:26:00,
2013-07-11 03:31:00,55.0,48.3,30.01,ENE,78,1.0,4.0,78,0.00,OVC,,0.00,WeatherDisplay:10.37,2013-07-11 10:31:00,
2013-07-11 03:36:00,54.9,48.2,30.02,NNE,28,0.0,4.0,78,0.00,OVC,,0.00,WeatherDisplay:10.37,2013-07-11 10:36:00,
2013-07-11 03:41:00,54.9,48.2,30.02,North,359,1.0,3.0,78,0.00,OVC,,0.00,WeatherDisplay:10.37,2013-07-11 10:41:00,
2013-07-11 03:46:00,54.9,48.2,30.02,North,360,0.0,3.0,78,0.00,OVC,,0.00,WeatherDisplay:10.37,2013-07-11 10:46:00,
2013-07-11 03:51:00,54.9,48.2,30.02,North,6,1.0,4.0,78,0.00,OVC,,0.00,WeatherDisplay:10.37,2013-07-11 10:51:00,
2013-07-11 04:01:00,54.9,48.2,30.02,East,86,0.0,1.0,78,0.00,OVC,,0.00,WeatherDisplay:10.37,2013-07-11 11:01:00,
2013-07-11 04:11:00,54.8,48.4,30.02,NE,46,0.0,3.0,79,0.00,OVC,,0.00,WeatherDisplay:10.37,2013-07-11 11:11:00,
2013-07-11 04:16:00,54.8,48.4,30.02,NNE,20,1.0,2.0,79,0.00,OVC,,0.00,WeatherDisplay:10.37,2013-07-11 11:16:00,
2013-07-11 04:21:00,54.8,48.4,30.03,North,1,0.0,2.0,79,0.00,OVC,,0.00,WeatherDisplay:10.37,2013-07-11 11:21:00,
2013-07-11 04:26:00,54.8,48.4,30.03,North,350,0.0,1.0,79,0.00,OVC,,0.00,WeatherDisplay:10.37,2013-07-11 11:26:00,
2013-07-11 04:31:00,54.8,48.4,30.03,North,358,0.0,1.0,79,0.00,OVC,,0.00,WeatherDisplay:10.37,2013-07-11 11:31:00,
2013-07-11 04:36:00,54.8,48.4,30.03,NNE,15,0.0,1.0,79,0.00,OVC,,0.00,WeatherDisplay:10.37,2013-07-11 11:36:00,
2013-07-11 04:41:00,54.8,48.4,30.03,North,5,0.0,2.0,79,0.00,OVC,,0.00,WeatherDisplay:10.37,2013-07-11 11:41:00,
2013-07-11 04:46:00,54.8,48.4,30.03,NNW,343,0.0,1.0,79,0.00,OVC,,0.00,WeatherDisplay:10.37,2013-07-11 11:46:00,
2013-07-11 04:51:00,54.7,48.3,30.03,NNW,345,0.0,1.0,79,0.00,OVC,,0.00,WeatherDisplay:10.37,2013-07-11 11:51:00,
2013-07-11 04:56:00,54.7,48.3,30.04,NW,324,0.0,1.0,79,0.00,OVC,,0.00,WeatherDisplay:10.37,2013-07-11 11:56:00,
2013-07-11 05:01:00,54.7,48.4,30.04,SSW,195,0.0,0.0,79,0.00,OVC,,0.00,WeatherDisplay:10.37,2013-07-11 12:01:00,
2013-07-11 05:11:00,54.7,48.7,30.04,SSW,195,0.0,0.0,80,0.00,OVC,,0.00,WeatherDisplay:10.37,2013-07-11 12:11:00,
2013-07-11 05:16:00,54.8,48.4,30.04,SSW,195,0.0,0.0,79,0.00,OVC,,0.00,WeatherDisplay:10.37,2013-07-11 12:16:00,
2013-07-11 05:21:00,54.8,48.4,30.04,South,184,1.0,2.0,79,0.00,OVC,,0.00,WeatherDisplay:10.37,2013-07-11 12:21:00,
2013-07-11 05:26:00,54.8,48.4,30.04,SSE,155,0.0,0.0,79,0.00,OVC,,0.00,WeatherDisplay:10.37,2013-07-11 12:26:00,
2013-07-11 05:31:00,54.8,48.7,30.04,SSE,153,0.0,0.0,80,0.00,OVC,,0.00,WeatherDisplay:10.37,2013-07-11 12:31:00,
2013-07-11 05:36:00,54.8,48.4,30.04,SSE,152,0.0,0.0,79,0.00,OVC,,0.00,WeatherDisplay:10.37,2013-07-11 12:36:00,
2013-07-11 05:41:00,54.8,48.4,30.04,SSE,152,0.0,0.0,79,0.00,OVC,,0.00,WeatherDisplay:10.37,2013-07-11 12:41:00,
2013-07-11 05:46:00,54.8,48.4,30.04,SSE,153,0.0,1.0,79,0.00,OVC,,0.00,WeatherDisplay:10.37,2013-07-11 12:46:00,
2013-07-11 05:51:00,54.8,48.4,30.05,SSE,152,0.0,1.0,79,0.00,OVC,,0.00,WeatherDisplay:10.37,2013-07-11 12:51:00,
2013-07-11 05:56:00,54.8,48.4,30.05,SSE,153,0.0,1.0,79,0.00,OVC,,0.00,WeatherDisplay:10.37,2013-07-11 12:56:00,
2013-07-11 06:01:00,54.9,48.5,30.05,SSE,154,0.0,0.0,79,0.00,OVC,,0.00,WeatherDisplay:10.37,2013-07-11 13:01:00,
2013-07-11 06:11:00,54.9,48.5,30.05,SSE,153,0.0,1.0,79,0.00,OVC,,0.00,WeatherDisplay:10.37,2013-07-11 13:11:00,
2013-07-11 06:16:00,54.9,48.5,30.05,SSE,153,0.0,0.0,79,0.00,OVC,,0.00,WeatherDisplay:10.37,2013-07-11 13:16:00,
2013-07-11 06:21:00,54.9,48.5,30.05,SE,140,0.0,2.0,79,0.00,OVC,,0.00,WeatherDisplay:10.37,2013-07-11 13:21:00,
2013-07-11 06:41:00,55.1,48.7,30.06,SE,128,0.0,3.0,79,0.00,OVC,,0.00,WeatherDisplay:10.37,2013-07-11 13:41:00,
2013-07-11 06:46:00,55.1,48.7,30.06,ESE,112,0.0,3.0,79,0.00,OVC,,0.00,WeatherDisplay:10.37,2013-07-11 13:46:00,
2013-07-11 06:51:00,55.2,48.8,30.06,ESE,106,0.0,2.0,79,0.00,OVC,,0.00,WeatherDisplay:10.37,2013-07-11 13:51:00,
2013-07-11 07:01:00,55.3,48.9,30.06,South,183,0.0,0.0,79,0.00,OVC,,0.00,WeatherDisplay:10.37,2013-07-11 14:01:00,
2013-07-11 07:11:00,55.4,48.7,30.06,South,187,0.0,1.0,78,0.00,OVC,,0.00,WeatherDisplay:10.37,2013-07-11 14:11:00,
2013-07-11 07:16:00,55.4,48.7,30.07,SSE,160,0.0,1.0,78,0.00,OVC,,0.00,WeatherDisplay:10.37,2013-07-11 14:16:00,
2013-07-11 07:21:00,55.5,48.7,30.07,SE,142,0.0,1.0,78,0.00,OVC,,0.00,WeatherDisplay:10.37,2013-07-11 14:21:00,
2013-07-11 07:26:00,55.5,49.1,30.07,SE,124,0.0,3.0,79,0.00,OVC,,0.00,WeatherDisplay:10.37,2013-07-11 14:26:00,
2013-07-11 07:31:00,55.4,49.0,30.07,SE,125,0.0,2.0,79,0.00,OVC,,0.00,WeatherDisplay:10.37,2013-07-11 14:31:00,
2013-07-11 07:36:00,55.4,49.0,30.07,SE,128,0.0,3.0,79,0.00,OVC,,0.00,WeatherDisplay:10.37,2013-07-11 14:36:00,
2013-07-11 07:41:00,55.4,48.9,30.07,North,349,1.0,2.0,79,0.00,OVC,,0.00,WeatherDisplay:10.37,2013-07-11 14:41:00,
2013-07-11 07:46:00,55.3,49.2,30.07,North,355,0.0,1.0,80,0.00,OVC,,0.00,WeatherDisplay:10.37,2013-07-11 14:46:00,
2013-07-11 07:51:00,55.3,49.6,30.07,SE,134,0.0,1.0,81,0.00,OVC,,0.00,WeatherDisplay:10.37,2013-07-11 14:51:00,
2013-07-11 07:56:00,55.3,49.9,30.07,SE,134,0.0,3.0,82,0.00,OVC,,0.00,WeatherDisplay:10.37,2013-07-11 14:56:00,
2013-07-11 08:01:00,54.9,49.9,30.07,SE,140,1.0,3.0,83,0.00,OVC,,0.00,WeatherDisplay:10.37,2013-07-11 15:01:00,
2013-07-11 08:11:00,54.6,50.5,30.07,SSE,154,0.0,1.0,86,0.00,OVC,,0.00,WeatherDisplay:10.37,2013-07-11 15:11:00,
2013-07-11 08:21:00,54.2,50.1,30.08,SE,137,0.0,2.0,86,0.00,OVC,,0.00,WeatherDisplay:10.37,2013-07-11 15:21:00,
2013-07-11 08:31:00,53.9,49.5,30.08,SE,139,0.0,2.0,85,0.00,OVC,,0.00,WeatherDisplay:10.37,2013-07-11 15:31:00,
2013-07-11 08:36:00,54.0,49.9,30.08,SE,139,0.0,1.0,86,0.00,OVC,,0.00,WeatherDisplay:10.37,2013-07-11 15:36:00,
2013-07-11 08:41:00,54.0,49.6,30.08,SE,136,0.0,1.0,85,0.00,OVC,,0.00,WeatherDisplay:10.37,2013-07-11 15:41:00,
2013-07-11 08:46:00,54.1,50.0,30.08,South,180,0.0,1.0,86,0.00,OVC,,0.00,WeatherDisplay:10.37,2013-07-11 15:46:00,
2013-07-11 08:51:00,54.2,49.8,30.08,SSW,208,0.0,1.0,85,0.00,OVC,,0.00,WeatherDisplay:10.37,2013-07-11 15:51:00,
2013-07-11 09:06:00,54.3,49.6,30.07,SSE,156,0.0,2.0,84,0.00,OVC,,0.00,WeatherDisplay:10.37,2013-07-11 16:06:00,
2013-07-11 09:11:00,54.5,49.8,30.07,South,170,1.0,3.0,84,0.00,OVC,,0.00,WeatherDisplay:10.37,2013-07-11 16:11:00,
2013-07-11 09:16:00,54.6,49.5,30.08,SSE,147,2.0,4.0,83,0.00,OVC,,0.00,WeatherDisplay:10.37,2013-07-11 16:16:00,
2013-07-11 09:21:00,54.6,49.9,30.08,SSE,150,1.0,4.0,84,0.00,OVC,,0.00,WeatherDisplay:10.37,2013-07-11 16:21:00,
2013-07-11 09:26:00,54.9,50.2,30.07,SE,145,1.0,3.0,84,0.00,OVC,,0.00,WeatherDisplay:10.37,2013-07-11 16:26:00,
2013-07-11 09:31:00,55.0,50.2,30.08,SE,142,1.0,3.0,84,0.00,OVC,,0.00,WeatherDisplay:10.37,2013-07-11 16:31:00,
2013-07-11 09:36:00,55.0,50.3,30.08,SSE,148,0.0,3.0,84,0.00,OVC,,0.00,WeatherDisplay:10.37,2013-07-11 16:36:00,
2013-07-11 09:41:00,55.1,50.0,30.08,SSE,147,0.0,2.0,83,0.00,OVC,,0.00,WeatherDisplay:10.37,2013-07-11 16:41:00,
2013-07-11 09:46:00,55.3,50.2,30.08,South,177,0.0,2.0,83,0.00,OVC,,0.00,WeatherDisplay:10.37,2013-07-11 16:46:00,
2013-07-11 09:51:00,55.6,50.5,30.08,SSW,207,0.0,1.0,83,0.00,OVC,,0.00,WeatherDisplay:10.37,2013-07-11 16:51:00,
2013-07-11 09:56:00,55.8,50.1,30.08,SSE,152,1.0,3.0,81,0.00,OVC,,0.00,WeatherDisplay:10.37,2013-07-11 16:56:00,
2013-07-11 10:01:00,55.7,50.0,30.08,SE,140,0.0,3.0,81,0.00,OVC,,0.00,WeatherDisplay:10.37,2013-07-11 17:01:00,
2013-07-11 10:11:00,56.5,50.1,30.08,WSW,244,2.0,4.0,79,0.00,OVC,,0.00,WeatherDisplay:10.37,2013-07-11 17:11:00,
2013-07-11 10:16:00,56.5,49.7,30.08,WSW,248,1.0,4.0,78,0.00,OVC,,0.00,WeatherDisplay:10.37,2013-07-11 17:16:00,
2013-07-11 10:21:00,56.7,49.9,30.08,WSW,251,1.0,4.0,78,0.00,OVC,,0.00,WeatherDisplay:10.37,2013-07-11 17:21:00,
2013-07-11 10:26:00,57.0,49.9,30.08,West,266,1.0,3.0,77,0.00,OVC,,0.00,WeatherDisplay:10.37,2013-07-11 17:26:00,
2013-07-11 10:31:00,57.4,50.6,30.08,WSW,254,0.0,1.0,78,0.00,OVC,,0.00,WeatherDisplay:10.37,2013-07-11 17:31:00,
2013-07-11 10:41:00,57.6,50.1,30.08,SW,218,1.0,2.0,76,0.00,OVC,,0.00,WeatherDisplay:10.37,2013-07-11 17:41:00,
2013-07-11 10:56:00,58.6,50.7,30.08,West,278,0.0,2.0,75,0.00,OVC,,0.00,WeatherDisplay:10.37,2013-07-11 17:56:00,
2013-07-11 11:01:00,58.6,50.3,30.08,WNW,294,1.0,2.0,74,0.00,OVC,,0.00,WeatherDisplay:10.37,2013-07-11 18:01:00,
2013-07-11 11:11:00,58.9,51.0,30.08,SW,228,1.0,3.0,75,0.00,OVC,,0.00,WeatherDisplay:10.37,2013-07-11 18:11:00,
2013-07-11 11:16:00,58.9,51.4,30.08,WSW,242,0.0,2.0,76,0.00,OVC,,0.00,WeatherDisplay:10.37,2013-07-11 18:16:00,
2013-07-11 11:21:00,58.9,50.6,30.08,SSE,156,0.0,4.0,74,0.00,OVC,,0.00,WeatherDisplay:10.37,2013-07-11 18:21:00,
2013-07-11 11:31:00,59.6,50.9,30.09,West,270,1.0,3.0,73,0.00,OVC,,0.00,WeatherDisplay:10.37,2013-07-11 18:31:00,
2013-07-11 11:36:00,60.2,51.9,30.09,WSW,242,1.0,2.0,74,0.00,OVC,,0.00,WeatherDisplay:10.37,2013-07-11 18:36:00,
2013-07-11 11:41:00,61.0,51.9,30.09,ESE,110,1.0,1.0,72,0.00,OVC,,0.00,WeatherDisplay:10.37,2013-07-11 18:41:00,
2013-07-11 11:46:00,61.5,51.6,30.09,NW,325,0.0,2.0,70,0.00,OVC,,0.00,WeatherDisplay:10.37,2013-07-11 18:46:00,
2013-07-11 11:51:00,61.5,50.8,30.09,WSW,240,3.0,7.0,68,0.00,OVC,,0.00,WeatherDisplay:10.37,2013-07-11 18:51:00,
2013-07-11 11:56:00,61.5,51.6,30.09,SSW,210,2.0,4.0,70,0.00,OVC,,0.00,WeatherDisplay:10.37,2013-07-11 18:56:00,
2013-07-11 12:01:00,62.2,51.1,30.08,SW,220,2.0,5.0,67,0.00,BKN,,0.00,WeatherDisplay:10.37,2013-07-11 19:01:00,
2013-07-11 12:16:00,62.3,51.2,30.08,West,266,3.0,6.0,67,0.00,BKN,,0.00,WeatherDisplay:10.37,2013-07-11 19:16:00,
2013-07-11 12:26:00,61.7,51.0,30.08,SSW,202,1.0,2.0,68,0.00,BKN,,0.00,WeatherDisplay:10.37,2013-07-11 19:26:00,
2013-07-11 12:36:00,63.6,51.7,30.08,SE,124,1.0,4.0,65,0.00,BKN,,0.00,WeatherDisplay:10.37,2013-07-11 19:36:00,
2013-07-11 12:41:00,64.3,52.7,30.08,ESE,117,1.0,3.0,66,0.00,BKN,,0.00,WeatherDisplay:10.37,2013-07-11 19:41:00,
2013-07-11 12:51:00,65.5,52.1,30.08,West,267,2.0,4.0,62,0.00,BKN,,0.00,WeatherDisplay:10.37,2013-07-11 19:51:00,
2013-07-11 12:56:00,65.2,51.4,30.08,West,271,1.0,5.0,61,0.00,BKN,,0.00,WeatherDisplay:10.37,2013-07-11 19:56:00,
2013-07-11 13:01:00,65.4,52.0,30.07,West,268,1.0,4.0,62,0.00,BKN,,0.00,WeatherDisplay:10.37,2013-07-11 20:01:00,
2013-07-11 13:11:00,65.0,51.2,30.08,West,262,2.0,5.0,61,0.00,BKN,,0.00,WeatherDisplay:10.37,2013-07-11 20:11:00,
2013-07-11 13:16:00,65.0,51.2,30.08,WSW,253,1.0,6.0,61,0.00,BKN,,0.00,WeatherDisplay:10.37,2013-07-11 20:16:00,
2013-07-11 13:21:00,64.9,50.3,30.08,WSW,237,5.0,8.0,59,0.00,BKN,,0.00,WeatherDisplay:10.37,2013-07-11 20:21:00,
2013-07-11 13:31:00,66.1,51.3,30.07,WSW,246,2.0,4.0,59,0.00,BKN,,0.00,WeatherDisplay:10.37,2013-07-11 20:31:00,
2013-07-11 13:36:00,65.2,50.5,30.07,WSW,248,1.0,7.0,59,0.00,BKN,,0.00,WeatherDisplay:10.37,2013-07-11 20:36:00,
2013-07-11 13:41:00,66.0,51.7,30.07,WSW,252,1.0,4.0,60,0.00,BKN,,0.00,WeatherDisplay:10.37,2013-07-11 20:41:00,
2013-07-11 13:46:00,67.2,51.5,30.07,West,263,1.0,5.0,57,0.00,BKN,,0.00,WeatherDisplay:10.37,2013-07-11 20:46:00,
2013-07-11 14:01:00,68.5,51.2,30.07,WSW,247,1.0,4.0,54,0.00,FEW,,0.00,WeatherDisplay:10.37,2013-07-11 21:01:00,
2013-07-11 14:11:00,68.9,51.0,30.07,ESE,110,1.0,3.0,53,0.00,FEW,,0.00,WeatherDisplay:10.37,2013-07-11 21:11:00,
2013-07-11 14:16:00,68.3,51.0,30.07,East,94,1.0,3.0,54,0.00,FEW,,0.00,WeatherDisplay:10.37,2013-07-11 21:16:00,
2013-07-11 14:26:00,67.7,50.9,30.06,NNW,327,0.0,2.0,55,0.00,FEW,,0.00,WeatherDisplay:10.37,2013-07-11 21:26:00,
2013-07-11 14:31:00,68.1,51.4,30.06,East,89,2.0,4.0,55,0.00,FEW,,0.00,WeatherDisplay:10.37,2013-07-11 21:31:00,
2013-07-11 14:36:00,68.1,50.3,30.06,ESE,110,1.0,4.0,53,0.00,FEW,,0.00,WeatherDisplay:10.37,2013-07-11 21:36:00,
2013-07-11 14:41:00,68.1,51.3,30.06,ESE,118,0.0,2.0,55,0.00,FEW,,0.00,WeatherDisplay:10.37,2013-07-11 21:41:00,
2013-07-11 14:46:00,68.4,50.6,30.06,ESE,112,0.0,2.0,53,0.00,FEW,,0.00,WeatherDisplay:10.37,2013-07-11 21:46:00,
2013-07-11 14:51:00,68.3,49.5,30.06,East,81,0.0,2.0,51,0.00,FEW,,0.00,WeatherDisplay:10.37,2013-07-11 21:51:00,
2013-07-11 15:01:00,67.6,48.3,30.06,ESE,103,1.0,3.0,50,0.00,CLR,,0.00,WeatherDisplay:10.37,2013-07-11 22:01:00,
2013-07-11 15:16:00,68.1,50.8,30.06,East,87,1.0,2.0,54,0.00,CLR,,0.00,WeatherDisplay:10.37,2013-07-11 22:16:00,
2013-07-11 15:21:00,67.4,50.7,30.05,East,101,0.0,2.0,55,0.00,CLR,,0.00,WeatherDisplay:10.37,2013-07-11 22:21:00,
2013-07-11 15:26:00,67.7,50.9,30.06,East,81,1.0,3.0,55,0.00,CLR,,0.00,WeatherDisplay:10.37,2013-07-11 22:26:00,
2013-07-11 15:31:00,67.9,50.6,30.06,NE,55,2.0,5.0,54,0.00,CLR,,0.00,WeatherDisplay:10.37,2013-07-11 22:31:00,
2013-07-11 15:41:00,68.9,51.0,30.05,WSW,241,1.0,4.0,53,0.00,CLR,,0.00,WeatherDisplay:10.37,2013-07-11 22:41:00,
2013-07-11 15:46:00,69.4,50.5,30.05,North,359,2.0,5.0,51,0.00,CLR,,0.00,WeatherDisplay:10.37,2013-07-11 22:46:00,
2013-07-11 15:56:00,69.2,49.8,30.05,WNW,286,2.0,5.0,50,0.00,CLR,,0.00,WeatherDisplay:10.37,2013-07-11 22:56:00,
2013-07-11 16:06:00,69.0,49.6,30.05,West,264,0.0,2.0,50,0.00,CLR,,0.00,WeatherDisplay:10.37,2013-07-11 23:06:00,
2013-07-11 16:11:00,69.0,50.1,30.05,NNE,31,1.0,4.0,51,0.00,CLR,,0.00,WeatherDisplay:10.37,2013-07-11 23:11:00,
2013-07-11 16:16:00,68.8,50.0,30.04,NNW,338,1.0,4.0,51,0.00,CLR,,0.00,WeatherDisplay:10.37,2013-07-11 23:16:00,
2013-07-11 16:21:00,68.8,49.9,30.04,NNW,341,1.0,4.0,51,0.00,CLR,,0.00,WeatherDisplay:10.37,2013-07-11 23:21:00,
2013-07-11 16:26:00,68.8,50.5,30.04,NW,326,1.0,5.0,52,0.00,CLR,,0.00,WeatherDisplay:10.37,2013-07-11 23:26:00,
2013-07-11 16:31:00,68.7,50.4,30.04,East,86,0.0,6.0,52,0.00,CLR,,0.00,WeatherDisplay:10.37,2013-07-11 23:31:00,
2013-07-11 16:41:00,68.9,50.0,30.04,NW,316,1.0,5.0,51,0.00,CLR,,0.00,WeatherDisplay:10.37,2013-07-11 23:41:00,
2013-07-11 16:46:00,68.6,50.3,30.04,North,350,0.0,5.0,52,0.00,CLR,,0.00,WeatherDisplay:10.37,2013-07-11 23:46:00,
2013-07-11 16:56:00,68.2,50.4,30.03,NNW,347,0.0,2.0,53,0.00,CLR,,0.00,WeatherDisplay:10.37,2013-07-11 23:56:00,
2013-07-11 17:01:00,68.0,49.2,30.03,NE,45,2.0,6.0,51,0.00,FEW,,0.00,WeatherDisplay:10.37,2013-07-12 00:01:00,
2013-07-11 17:11:00,67.9,49.6,30.03,East,91,0.0,3.0,52,0.00,FEW,,0.00,WeatherDisplay:10.37,2013-07-12 00:11:00,
2013-07-11 17:16:00,67.9,50.2,30.03,ENE,60,0.0,3.0,53,0.00,FEW,,0.00,WeatherDisplay:10.37,2013-07-12 00:16:00,
2013-07-11 17:26:00,68.1,49.8,30.03,ENE,76,1.0,6.0,52,0.00,FEW,,0.00,WeatherDisplay:10.37,2013-07-12 00:26:00,
2013-07-11 17:31:00,67.5,49.8,30.02,East,93,1.0,5.0,53,0.00,FEW,,0.00,WeatherDisplay:10.37,2013-07-12 00:31:00,
2013-07-11 17:36:00,67.5,50.8,30.02,ESE,105,0.0,3.0,55,0.00,FEW,,0.00,WeatherDisplay:10.37,2013-07-12 00:36:00,
2013-07-11 17:41:00,67.6,49.9,30.02,East,85,1.0,3.0,53,0.00,FEW,,0.00,WeatherDisplay:10.37,2013-07-12 00:41:00,
2013-07-11 17:51:00,67.4,49.7,30.02,NE,56,1.0,4.0,53,0.00,FEW,,0.00,WeatherDisplay:10.37,2013-07-12 00:51:00,
2013-07-11 17:56:00,67.9,50.1,30.02,NNW,342,1.0,3.0,53,0.00,FEW,,0.00,WeatherDisplay:10.37,2013-07-12 00:56:00,
2013-07-11 18:01:00,67.7,49.4,30.02,ENE,66,2.0,8.0,52,0.00,CLR,,0.00,WeatherDisplay:10.37,2013-07-12 01:01:00,
2013-07-11 18:16:00,66.0,48.4,30.02,NNW,341,1.0,3.0,53,0.00,CLR,,0.00,WeatherDisplay:10.37,2013-07-12 01:16:00,
2013-07-11 18:26:00,65.7,48.6,30.02,NNW,336,0.0,3.0,54,0.00,CLR,,0.00,WeatherDisplay:10.37,2013-07-12 01:26:00,
2013-07-11 18:31:00,65.8,48.7,30.02,NE,34,1.0,3.0,54,0.00,CLR,,0.00,WeatherDisplay:10.37,2013-07-12 01:31:00,
2013-07-11 18:36:00,65.8,48.7,30.01,North,8,1.0,2.0,54,0.00,CLR,,0.00,WeatherDisplay:10.37,2013-07-12 01:36:00,
2013-07-11 18:41:00,65.8,48.2,30.01,NW,318,1.0,3.0,53,0.00,CLR,,0.00,WeatherDisplay:10.37,2013-07-12 01:41:00,
2013-07-11 18:51:00,65.6,48.5,30.01,NNW,327,1.0,2.0,54,0.00,CLR,,0.00,WeatherDisplay:10.37,2013-07-12 01:51:00,
2013-07-11 18:56:00,65.4,48.3,30.01,East,90,1.0,4.0,54,0.00,CLR,,0.00,WeatherDisplay:10.37,2013-07-12 01:56:00,
2013-07-11 19:01:00,65.2,48.1,30.01,NE,43,0.0,2.0,54,0.00,CLR,,0.00,WeatherDisplay:10.37,2013-07-12 02:01:00,
2013-07-11 19:11:00,64.9,47.4,30.01,WSW,258,0.0,5.0,53,0.00,CLR,,0.00,WeatherDisplay:10.37,2013-07-12 02:11:00,
2013-07-11 19:21:00,64.6,47.6,30.01,North,11,1.0,2.0,54,0.00,CLR,,0.00,WeatherDisplay:10.37,2013-07-12 02:21:00,
2013-07-11 19:26:00,64.5,47.5,30.01,NNE,30,1.0,2.0,54,0.00,CLR,,0.00,WeatherDisplay:10.37,2013-07-12 02:26:00,
2013-07-11 19:31:00,64.4,47.4,30.01,NW,312,1.0,2.0,54,0.00,CLR,,0.00,WeatherDisplay:10.37,2013-07-12 02:31:00,
2013-07-11 19:36:00,64.2,47.7,30.01,North,6,0.0,3.0,55,0.00,CLR,,0.00,WeatherDisplay:10.37,2013-07-12 02:36:00,
2013-07-11 19:46:00,64.0,47.5,30.01,SE,137,0.0,3.0,55,0.00,CLR,,0.00,WeatherDisplay:10.37,2013-07-12 02:46:00,
2013-07-11 19:56:00,63.7,47.2,30.01,NE,42,0.0,4.0,55,0.00,CLR,,0.00,WeatherDisplay:10.37,2013-07-12 02:56:00,
2013-07-11 20:01:00,63.6,47.6,30.01,North,11,2.0,5.0,56,0.00,CLR,,0.00,WeatherDisplay:10.37,2013-07-12 03:01:00,
2013-07-11 20:11:00,63.1,47.1,30.01,North,9,1.0,4.0,56,0.00,CLR,,0.00,WeatherDisplay:10.37,2013-07-12 03:11:00,
2013-07-11 20:16:00,62.9,47.4,30.01,SE,126,0.0,2.0,57,0.00,CLR,,0.00,WeatherDisplay:10.37,2013-07-12 03:16:00,
2013-07-11 20:21:00,62.8,47.8,30.01,East,86,0.0,2.0,58,0.00,CLR,,0.00,WeatherDisplay:10.37,2013-07-12 03:21:00,
2013-07-11 20:26:00,62.6,47.6,30.01,East,84,0.0,2.0,58,0.00,CLR,,0.00,WeatherDisplay:10.37,2013-07-12 03:26:00,
2013-07-11 20:31:00,62.4,47.4,30.01,ESE,118,0.0,4.0,58,0.00,CLR,,0.00,WeatherDisplay:10.37,2013-07-12 03:31:00,
2013-07-11 20:36:00,62.2,47.2,30.01,SE,127,1.0,3.0,58,0.00,CLR,,0.00,WeatherDisplay:10.37,2013-07-12 03:36:00,
2013-07-11 20:46:00,61.8,47.3,30.01,ENE,72,0.0,1.0,59,0.00,CLR,,0.00,WeatherDisplay:10.37,2013-07-12 03:46:00,
2013-07-11 20:56:00,61.4,47.0,30.01,West,263,1.0,5.0,59,0.00,CLR,,0.00,WeatherDisplay:10.37,2013-07-12 03:56:00,
2013-07-11 21:01:00,61.4,47.4,30.01,West,260,1.0,6.0,60,0.00,BKN,,0.00,WeatherDisplay:10.37,2013-07-12 04:01:00,
2013-07-11 21:06:00,61.2,46.8,30.01,North,358,1.0,6.0,59,0.00,BKN,,0.00,WeatherDisplay:10.37,2013-07-12 04:06:00,
2013-07-11 21:11:00,61.1,46.7,30.01,NNE,18,2.0,5.0,59,0.00,BKN,,0.00,WeatherDisplay:10.37,2013-07-12 04:11:00,
2013-07-11 21:16:00,60.9,47.0,30.01,NNE,30,0.0,6.0,60,0.00,BKN,,0.00,WeatherDisplay:10.37,2013-07-12 04:16:00,
2013-07-11 21:21:00,60.8,46.8,30.01,NNE,25,0.0,2.0,60,0.00,BKN,,0.00,WeatherDisplay:10.37,2013-07-12 04:21:00,
2013-07-11 21:26:00,60.7,46.7,30.01,North,5,2.0,4.0,60,0.00,BKN,,0.00,WeatherDisplay:10.37,2013-07-12 04:26:00,
2013-07-11 21:31:00,60.4,46.9,30.01,North,10,1.0,4.0,61,0.00,BKN,,0.00,WeatherDisplay:10.37,2013-07-12 04:31:00,
2013-07-11 21:36:00,60.2,47.1,30.01,North,350,0.0,1.0,62,0.00,BKN,,0.00,WeatherDisplay:10.37,2013-07-12 04:36:00,
2013-07-11 21:41:00,60.1,47.0,30.02,North,8,1.0,5.0,62,0.00,BKN,,0.00,WeatherDisplay:10.37,2013-07-12 04:41:00,
2013-07-11 21:46:00,59.9,47.2,30.01,ENE,62,0.0,3.0,63,0.00,BKN,,0.00,WeatherDisplay:10.37,2013-07-12 04:46:00,
2013-07-11 21:51:00,59.7,47.1,30.01,ENE,72,0.0,2.0,63,0.00,BKN,,0.00,WeatherDisplay:10.37,2013-07-12 04:51:00,
2013-07-11 21:56:00,59.5,46.8,30.02,NW,317,1.0,5.0,63,0.00,BKN,,0.00,WeatherDisplay:10.37,2013-07-12 04:56:00,
2013-07-11 22:01:00,59.1,46.9,30.02,NE,52,1.0,8.0,64,0.00,CLR,,0.00,WeatherDisplay:10.37,2013-07-12 05:01:00,
2013-07-11 22:11:00,58.4,47.1,30.02,NNE,14,1.0,4.0,66,0.00,CLR,,0.00,WeatherDisplay:10.37,2013-07-12 05:11:00,
2013-07-11 22:16:00,58.1,46.8,30.02,ENE,67,2.0,5.0,66,0.00,CLR,,0.00,WeatherDisplay:10.37,2013-07-12 05:16:00,
2013-07-11 22:21:00,57.7,47.2,30.02,ENE,73,1.0,4.0,68,0.00,CLR,,0.00,WeatherDisplay:10.37,2013-07-12 05:21:00,
2013-07-11 22:26:00,57.4,46.9,30.02,ENE,71,0.0,1.0,68,0.00,CLR,,0.00,WeatherDisplay:10.37,2013-07-12 05:26:00,
2013-07-11 22:31:00,57.0,46.9,30.02,NE,52,0.0,1.0,69,0.00,CLR,,0.00,WeatherDisplay:10.37,2013-07-12 05:31:00,
2013-07-11 22:36:00,56.7,47.0,30.02,ENE,66,0.0,1.0,70,0.00,CLR,,0.00,WeatherDisplay:10.37,2013-07-12 05:36:00,
2013-07-11 22:41:00,56.4,47.1,30.02,East,93,1.0,3.0,71,0.00,CLR,,0.00,WeatherDisplay:10.37,2013-07-12 05:41:00,
2013-07-11 22:46:00,56.2,46.9,30.02,East,81,0.0,4.0,71,0.00,CLR,,0.00,WeatherDisplay:10.37,2013-07-12 05:46:00,
2013-07-11 22:51:00,56.1,46.8,30.02,ENE,64,1.0,5.0,71,0.00,CLR,,0.00,WeatherDisplay:10.37,2013-07-12 05:51:00,
2013-07-11 22:56:00,55.9,47.0,30.02,ENE,63,0.0,3.0,72,0.00,CLR,,0.00,WeatherDisplay:10.37,2013-07-12 05:56:00,
2013-07-11 23:01:00,55.6,46.7,30.02,ENE,61,0.0,2.0,72,0.00,OVC,,0.00,WeatherDisplay:10.37,2013-07-12 06:01:00,
2013-07-11 23:11:00,55.1,47.0,30.02,NNE,26,1.0,1.0,74,0.00,OVC,,0.00,WeatherDisplay:10.37,2013-07-12 06:11:00,
2013-07-11 23:16:00,54.8,47.1,30.02,NE,49,0.0,3.0,75,0.00,OVC,,0.00,WeatherDisplay:10.37,2013-07-12 06:16:00,
2013-07-11 23:21:00,54.6,46.8,30.02,ENE,78,0.0,2.0,75,0.00,OVC,,0.00,WeatherDisplay:10.37,2013-07-12 06:21:00,
2013-07-11 23:26:00,54.4,47.0,30.02,NE,55,0.0,2.0,76,0.00,OVC,,0.00,WeatherDisplay:10.37,2013-07-12 06:26:00,
2013-07-11 23:31:00,54.2,47.2,30.02,NNE,32,0.0,2.0,77,0.00,OVC,,0.00,WeatherDisplay:10.37,2013-07-12 06:31:00,
2013-07-11 23:36:00,54.1,47.0,30.02,NE,48,0.0,1.0,77,0.00,OVC,,0.00,WeatherDisplay:10.37,2013-07-12 06:36:00,
2013-07-11 23:41:00,53.9,47.2,30.02,East,80,0.0,1.0,78,0.00,OVC,,0.00,WeatherDisplay:10.37,2013-07-12 06:41:00,
2013-07-11 23:46:00,53.7,47.0,30.02,East,81,0.0,3.0,78,0.00,OVC,,0.00,WeatherDisplay:10.37,2013-07-12 06:46:00,
2013-07-11 23:51:00,53.6,47.2,30.02,ENE,64,1.0,3.0,79,0.00,OVC,,0.00,WeatherDisplay:10.37,2013-07-12 06:51:00,
2013-07-11 23:56:00,53.5,47.1,30.02,NE,34,1.0,2.0,79,0.00,OVC,,0.00,WeatherDisplay:10.37,2013-07-12 06:56:00,